TOM877 EGCC-GBYD

Flight info

Callsign TOM877
Flight time 6h 14m
Altitude 23000
Route KUXEM P17 BEPHE/N0458F360 DCT OSSEP DCT ELNIF DCT ZESPE DCT KLAKI DCT SALCO/N0457F350 DCT COQUE DCT KORUL DCT DEMOS/N0455F370 DCT XANEL DCT TELMU DCT ROLAR DCT EKNOT DCT ORTIS DCT PITAB DCT GOMER DCT URQUI DCT UDATI/N0453F390 DCT BIPET/N0477F300 DCT SILUC DCT NOCUT UG853 BIMUT/N0457F390 DCT LIMAX/N0463F380 UB600 ANITI/N0459F390 UB600 BJ
Aircraft B38M/M-SDE1FGHILORVWXY/HB1

Departure

Time 2026-04-20 13:01
Airport Manchester Airport (EGCC)

Arrival

Time 2026-04-20 19:15
Airport Banjul International Airport (GBYD)
Time Latitude Longitude Altitude Speed Heading
2026-04-20 12:18 53.36608 -2.28623 215 ft 0 kts 129°
2026-04-20 12:48 53.36615 -2.28639 215 ft 2 kts 129°
2026-04-20 12:48 53.36624 -2.28658 216 ft 2 kts 129°
2026-04-20 12:48 53.36635 -2.28676 216 ft 2 kts 148°
2026-04-20 12:49 53.36649 -2.28687 216 ft 2 kts 165°
2026-04-20 12:49 53.36663 -2.28690 216 ft 2 kts 183°
2026-04-20 12:49 53.36678 -2.28686 216 ft 2 kts 201°
2026-04-20 12:49 53.36691 -2.28674 217 ft 1 kts 219°
2026-04-20 12:50 53.36695 -2.28667 217 ft 1 kts 225°
2026-04-20 12:50 53.36697 -2.28664 217 ft 0 kts 224°
2026-04-20 12:52 53.36692 -2.28673 217 ft 4 kts 224°
2026-04-20 12:52 53.36659 -2.28725 217 ft 6 kts 224°
2026-04-20 12:53 53.36618 -2.28774 218 ft 8 kts 188°
2026-04-20 12:53 53.36566 -2.28693 216 ft 12 kts 127°
2026-04-20 12:53 53.36504 -2.28589 214 ft 14 kts 136°
2026-04-20 12:53 53.36433 -2.28471 215 ft 12 kts 135°
2026-04-20 12:54 53.36381 -2.28382 217 ft 8 kts 135°
2026-04-20 12:54 53.36348 -2.28327 219 ft 4 kts 135°
2026-04-20 12:54 53.36323 -2.28285 221 ft 9 kts 135°
2026-04-20 12:54 53.36268 -2.28192 227 ft 9 kts 134°
2026-04-20 12:55 53.36223 -2.28114 231 ft 10 kts 134°
2026-04-20 12:55 53.36158 -2.28007 236 ft 14 kts 135°
2026-04-20 12:55 53.36093 -2.27898 237 ft 11 kts 134°
2026-04-20 12:55 53.36041 -2.27833 239 ft 7 kts 167°
2026-04-20 12:56 53.35974 -2.27837 239 ft 12 kts 185°
2026-04-20 12:56 53.35892 -2.27847 239 ft 10 kts 177°
2026-04-20 12:56 53.35841 -2.27791 240 ft 7 kts 131°
2026-04-20 12:56 53.35808 -2.27728 241 ft 7 kts 131°
2026-04-20 12:57 53.35762 -2.27668 242 ft 8 kts 160°
2026-04-20 12:57 53.35701 -2.27626 243 ft 8 kts 155°
2026-04-20 12:57 53.35657 -2.27584 244 ft 5 kts 145°
2026-04-20 12:57 53.35619 -2.27530 245 ft 11 kts 138°
2026-04-20 12:58 53.35568 -2.27454 246 ft 8 kts 139°
2026-04-20 12:58 53.35522 -2.27389 247 ft 11 kts 146°
2026-04-20 12:58 53.35446 -2.27294 250 ft 12 kts 141°
2026-04-20 12:58 53.35392 -2.27219 253 ft 8 kts 140°
2026-04-20 12:59 53.35339 -2.27192 254 ft 9 kts 185°
2026-04-20 12:59 53.35252 -2.27218 252 ft 15 kts 190°
2026-04-20 12:59 53.35141 -2.27257 249 ft 16 kts 191°
2026-04-20 12:59 53.35030 -2.27296 247 ft 15 kts 195°
2026-04-20 13:00 53.34946 -2.27442 242 ft 25 kts 232°
2026-04-20 13:00 53.34692 -2.27974 226 ft 90 kts 230°
2026-04-20 13:00 53.34179 -2.29032 199 ft 141 kts 232°
2026-04-20 13:00 53.33474 -2.30492 228 ft 176 kts 230°
2026-04-20 13:01 53.32658 -2.32175 524 ft 192 kts 230°
2026-04-20 13:01 53.31851 -2.33867 1208 ft 189 kts 231°
2026-04-20 13:01 53.31124 -2.35734 1765 ft 194 kts 243°
2026-04-20 13:01 53.30720 -2.37869 2247 ft 199 kts 263°
2026-04-20 13:02 53.30868 -2.40176 2649 ft 206 kts 294°
2026-04-20 13:02 53.31461 -2.42430 2963 ft 219 kts 285°
2026-04-20 13:02 53.31676 -2.45043 3269 ft 232 kts 276°
2026-04-20 13:02 53.31671 -2.47815 3537 ft 247 kts 262°
2026-04-20 13:03 53.31280 -2.50706 3773 ft 267 kts 253°
2026-04-20 13:03 53.30726 -2.53689 4350 ft 273 kts 252°
2026-04-20 13:03 53.30162 -2.56713 4838 ft 278 kts 253°
2026-04-20 13:03 53.29577 -2.59790 4963 ft 278 kts 249°
2026-04-20 13:04 53.28774 -2.62735 4980 ft 275 kts 241°
2026-04-20 13:04 53.27601 -2.65190 4986 ft 272 kts 218°
2026-04-20 13:04 53.26085 -2.67042 4992 ft 272 kts 213°
2026-04-20 13:04 53.24529 -2.68853 4984 ft 271 kts 213°
2026-04-20 13:05 53.22997 -2.70642 4984 ft 271 kts 213°
2026-04-20 13:05 53.21448 -2.72442 4982 ft 272 kts 213°
2026-04-20 13:05 53.19863 -2.74274 5340 ft 281 kts 213°
2026-04-20 13:05 53.18287 -2.76095 6193 ft 276 kts 213°
2026-04-20 13:06 53.16701 -2.77921 6802 ft 280 kts 213°
2026-04-20 13:06 53.15123 -2.79737 7468 ft 281 kts 214°
2026-04-20 13:06 53.13516 -2.81587 8093 ft 283 kts 214°
2026-04-20 13:06 53.11898 -2.83453 8728 ft 285 kts 215°
2026-04-20 13:07 53.10261 -2.85334 9323 ft 289 kts 215°
2026-04-20 13:07 53.08542 -2.86997 9965 ft 291 kts 203°
2026-04-20 13:07 53.06569 -2.87771 10545 ft 295 kts 181°
2026-04-20 13:07 53.04511 -2.87472 10902 ft 306 kts 171°
2026-04-20 13:08 53.02348 -2.86867 11146 ft 322 kts 170°
2026-04-20 13:08 53.00106 -2.86240 11420 ft 336 kts 171°
2026-04-20 13:08 52.97738 -2.85594 11667 ft 350 kts 171°
2026-04-20 13:08 52.95311 -2.84937 11892 ft 364 kts 171°
2026-04-20 13:09 52.92778 -2.84253 12113 ft 378 kts 171°
2026-04-20 13:09 52.90128 -2.83539 12393 ft 389 kts 171°
2026-04-20 13:09 52.87462 -2.82821 12935 ft 392 kts 171°
2026-04-20 13:09 52.84769 -2.82094 13524 ft 394 kts 171°
2026-04-20 13:10 52.82080 -2.81369 14043 ft 398 kts 171°
2026-04-20 13:10 52.79334 -2.80631 14575 ft 402 kts 172°
2026-04-20 13:10 52.76574 -2.79888 15132 ft 406 kts 172°
2026-04-20 13:10 52.73789 -2.79140 15726 ft 409 kts 172°
2026-04-20 13:11 52.70975 -2.78387 16245 ft 413 kts 172°
2026-04-20 13:11 52.68142 -2.77629 16849 ft 415 kts 172°
2026-04-20 13:11 52.65271 -2.76866 17325 ft 420 kts 172°
2026-04-20 13:11 52.62403 -2.76242 17842 ft 422 kts 176°
2026-04-20 13:12 52.59457 -2.76021 18367 ft 424 kts 182°
2026-04-20 13:12 52.56503 -2.76147 18891 ft 426 kts 185°
2026-04-20 13:12 52.53544 -2.76398 19379 ft 429 kts 186°
2026-04-20 13:12 52.50571 -2.76674 19808 ft 434 kts 186°
2026-04-20 13:13 52.47553 -2.76949 20283 ft 437 kts 186°
2026-04-20 13:13 52.44529 -2.77218 20647 ft 442 kts 186°
2026-04-20 13:13 52.41459 -2.77488 21131 ft 444 kts 187°
2026-04-20 13:13 52.38357 -2.77760 21527 ft 448 kts 187°
2026-04-20 13:14 52.35249 -2.78030 22025 ft 449 kts 187°
2026-04-20 13:14 52.32120 -2.78300 22359 ft 454 kts 187°
2026-04-20 13:14 52.28989 -2.78571 22847 ft 455 kts 188°
2026-04-20 13:14 52.25828 -2.78843 23196 ft 459 kts 188°
2026-04-20 13:15 52.22649 -2.79117 23626 ft 461 kts 188°
2026-04-20 13:15 52.19443 -2.79393 23952 ft 464 kts 188°
2026-04-20 13:15 52.16204 -2.79673 24317 ft 467 kts 188°
2026-04-20 13:15 52.12942 -2.79951 24632 ft 471 kts 189°
2026-04-20 13:16 52.09668 -2.80231 25000 ft 472 kts 189°
2026-04-20 13:16 52.06404 -2.80509 25342 ft 475 kts 189°
2026-04-20 13:16 52.03139 -2.80785 25668 ft 477 kts 189°
2026-04-20 13:16 51.99802 -2.81071 25921 ft 481 kts 189°
2026-04-20 13:17 51.96442 -2.81355 26391 ft 479 kts 189°
2026-04-20 13:17 51.93129 -2.81630 26923 ft 475 kts 189°
2026-04-20 13:17 51.89851 -2.81902 27335 ft 475 kts 190°
2026-04-20 13:17 51.86522 -2.82181 27738 ft 474 kts 190°
2026-04-20 13:18 51.83271 -2.82544 28129 ft 470 kts 193°
2026-04-20 13:18 51.79989 -2.83174 28455 ft 469 kts 195°
2026-04-20 13:18 51.76778 -2.83906 28781 ft 469 kts 195°
2026-04-20 13:18 51.73544 -2.84660 28886 ft 475 kts 195°
2026-04-20 13:19 51.70287 -2.85411 29094 ft 478 kts 195°
2026-04-20 13:19 51.67002 -2.86152 29344 ft 480 kts 195°
2026-04-20 13:19 51.63691 -2.86881 29753 ft 477 kts 195°
2026-04-20 13:19 51.60434 -2.87589 30100 ft 476 kts 195°
2026-04-20 13:20 51.57162 -2.88294 30486 ft 474 kts 195°
2026-04-20 13:20 51.53927 -2.88987 30772 ft 475 kts 195°
2026-04-20 13:20 51.50656 -2.89688 31056 ft 475 kts 195°
2026-04-20 13:20 51.47382 -2.90386 31354 ft 474 kts 195°
2026-04-20 13:21 51.44104 -2.91083 31566 ft 476 kts 194°
2026-04-20 13:21 51.40840 -2.91777 31823 ft 476 kts 194°
2026-04-20 13:21 51.37543 -2.92474 32106 ft 476 kts 194°
2026-04-20 13:21 51.34266 -2.93164 32404 ft 475 kts 194°
2026-04-20 13:22 51.31032 -2.93844 32675 ft 475 kts 194°
2026-04-20 13:22 51.27775 -2.94528 32927 ft 474 kts 194°
2026-04-20 13:22 51.24475 -2.95219 33171 ft 475 kts 194°
2026-04-20 13:22 51.21209 -2.95902 33394 ft 475 kts 194°
2026-04-20 13:23 51.17955 -2.96581 33636 ft 475 kts 194°
2026-04-20 13:23 51.14689 -2.97262 33847 ft 476 kts 194°
2026-04-20 13:23 51.11440 -2.97939 34110 ft 475 kts 194°
2026-04-20 13:23 51.08171 -2.98621 34218 ft 478 kts 193°
2026-04-20 13:24 51.04879 -2.99305 34488 ft 476 kts 193°
2026-04-20 13:24 51.01613 -2.99980 34729 ft 475 kts 193°
2026-04-20 13:24 50.98347 -3.00654 34944 ft 474 kts 193°
2026-04-20 13:24 50.95066 -3.01330 35170 ft 473 kts 193°
2026-04-20 13:25 50.91825 -3.02000 35220 ft 474 kts 193°
2026-04-20 13:25 50.85315 -3.03340 35233 ft 470 kts 193°
2026-04-20 13:26 50.78877 -3.04664 35237 ft 470 kts 193°
2026-04-20 13:26 50.72424 -3.05995 35237 ft 470 kts 193°
2026-04-20 13:27 50.65944 -3.07323 35240 ft 470 kts 193°
2026-04-20 13:27 50.59500 -3.08636 35234 ft 467 kts 193°
2026-04-20 13:28 50.53052 -3.09944 35236 ft 467 kts 193°
2026-04-20 13:28 50.46631 -3.11250 35239 ft 469 kts 192°
2026-04-20 13:29 50.40218 -3.12630 35234 ft 465 kts 195°
2026-04-20 13:29 50.34003 -3.15175 35239 ft 458 kts 205°
2026-04-20 13:30 50.28135 -3.18776 35238 ft 456 kts 207°
2026-04-20 13:30 50.22251 -3.22543 35233 ft 456 kts 207°
2026-04-20 13:31 50.16395 -3.26265 35231 ft 455 kts 207°
2026-04-20 13:31 50.10571 -3.29942 35231 ft 455 kts 207°
2026-04-20 13:32 50.04699 -3.33631 35232 ft 455 kts 207°
2026-04-20 13:32 49.98834 -3.37308 35229 ft 457 kts 207°
2026-04-20 13:33 49.92980 -3.40967 35220 ft 455 kts 207°
2026-04-20 13:33 49.87132 -3.44611 35214 ft 454 kts 207°
2026-04-20 13:34 49.81267 -3.48257 35208 ft 454 kts 207°
2026-04-20 13:34 49.75412 -3.51885 35204 ft 453 kts 207°
2026-04-20 13:35 49.69572 -3.55404 35201 ft 453 kts 206°
2026-04-20 13:35 49.63665 -3.58808 35202 ft 454 kts 206°
2026-04-20 13:36 49.57780 -3.62189 35200 ft 454 kts 206°
2026-04-20 13:36 49.51867 -3.65591 35195 ft 454 kts 205°
2026-04-20 13:37 49.45980 -3.68972 35196 ft 454 kts 205°
2026-04-20 13:37 49.40072 -3.72358 35192 ft 452 kts 205°
2026-04-20 13:38 49.34219 -3.75707 35189 ft 452 kts 205°
2026-04-20 13:38 49.28336 -3.79065 35193 ft 453 kts 205°
2026-04-20 13:39 49.22452 -3.82414 35185 ft 451 kts 205°
2026-04-20 13:39 49.16592 -3.85742 35186 ft 452 kts 206°
2026-04-20 13:40 49.10724 -3.89066 35187 ft 451 kts 206°
2026-04-20 13:40 49.04836 -3.92392 35183 ft 450 kts 206°
2026-04-20 13:41 48.99006 -3.95678 35182 ft 449 kts 206°
2026-04-20 13:41 48.93151 -3.98970 35169 ft 449 kts 206°
2026-04-20 13:42 48.87306 -4.02248 35166 ft 449 kts 206°
2026-04-20 13:42 48.78552 -4.07143 35165 ft 450 kts 205°
2026-04-20 13:43 48.72700 -4.10403 35158 ft 447 kts 205°
2026-04-20 13:43 48.66872 -4.13643 35151 ft 448 kts 205°
2026-04-20 13:44 48.61058 -4.16867 35144 ft 448 kts 205°
2026-04-20 13:44 48.55233 -4.20089 35140 ft 447 kts 205°
2026-04-20 13:45 48.49398 -4.23309 35140 ft 447 kts 205°
2026-04-20 13:45 48.43539 -4.26534 35135 ft 447 kts 205°
2026-04-20 13:46 48.37746 -4.29715 35134 ft 446 kts 206°
2026-04-20 13:46 48.31942 -4.32894 35133 ft 446 kts 205°
2026-04-20 13:47 48.26085 -4.36094 35128 ft 447 kts 205°
2026-04-20 13:47 48.20265 -4.39266 35129 ft 446 kts 205°
2026-04-20 13:48 48.14478 -4.42412 35120 ft 446 kts 205°
2026-04-20 13:48 48.08641 -4.45579 35112 ft 446 kts 205°
2026-04-20 13:49 48.02809 -4.48736 35108 ft 445 kts 205°
2026-04-20 13:49 47.97025 -4.51858 35108 ft 445 kts 205°
2026-04-20 13:50 47.91226 -4.54981 35104 ft 445 kts 205°
2026-04-20 13:50 47.85402 -4.58109 35100 ft 444 kts 205°
2026-04-20 13:51 47.79594 -4.61222 35095 ft 445 kts 205°
2026-04-20 13:51 47.73815 -4.64309 35091 ft 443 kts 205°
2026-04-20 13:52 47.68016 -4.67404 35091 ft 444 kts 205°
2026-04-20 13:52 47.62249 -4.70474 35090 ft 443 kts 205°
2026-04-20 13:53 47.56441 -4.73559 35087 ft 444 kts 205°
2026-04-20 13:53 47.50667 -4.76617 35085 ft 444 kts 205°
2026-04-20 13:54 47.44864 -4.79683 35082 ft 444 kts 204°
2026-04-20 13:54 47.39063 -4.82742 35080 ft 443 kts 204°
2026-04-20 13:55 47.33289 -4.85778 35081 ft 444 kts 205°
2026-04-20 13:55 47.27472 -4.88829 35078 ft 442 kts 204°
2026-04-20 13:56 47.21673 -4.91864 35075 ft 443 kts 205°
2026-04-20 13:56 47.15895 -4.94883 35077 ft 442 kts 205°
2026-04-20 13:57 47.10166 -4.97940 35072 ft 439 kts 207°
2026-04-20 13:57 47.04781 -5.01937 35075 ft 433 kts 215°
2026-04-20 13:58 46.99633 -5.06471 35069 ft 432 kts 216°
2026-04-20 13:58 46.94551 -5.11042 35067 ft 431 kts 216°
2026-04-20 13:59 46.89429 -5.15635 35063 ft 432 kts 216°
2026-04-20 13:59 46.84324 -5.20202 35067 ft 431 kts 216°
2026-04-20 14:00 46.79230 -5.24745 35054 ft 432 kts 216°
2026-04-20 14:00 46.74132 -5.29281 35059 ft 432 kts 216°
2026-04-20 14:01 46.68990 -5.33847 35051 ft 432 kts 216°
2026-04-20 14:01 46.63874 -5.38377 35042 ft 431 kts 216°
2026-04-20 14:02 46.58761 -5.42895 35040 ft 430 kts 216°
2026-04-20 14:02 46.53672 -5.47383 35034 ft 430 kts 216°
2026-04-20 14:03 46.48567 -5.51875 35030 ft 430 kts 216°
2026-04-20 14:03 46.43469 -5.56350 35030 ft 429 kts 216°
2026-04-20 14:04 46.38398 -5.60792 35030 ft 429 kts 216°
2026-04-20 14:04 46.33298 -5.65252 35027 ft 430 kts 215°
2026-04-20 14:05 46.28191 -5.69706 35024 ft 430 kts 215°
2026-04-20 14:05 46.23051 -5.74180 35018 ft 431 kts 214°
2026-04-20 14:06 46.17942 -5.78614 35015 ft 430 kts 215°
2026-04-20 14:06 46.12846 -5.83029 35015 ft 429 kts 214°
2026-04-20 14:07 46.07729 -5.87453 35012 ft 428 kts 214°
2026-04-20 14:07 46.02636 -5.91845 35013 ft 427 kts 214°
2026-04-20 14:08 45.97540 -5.96233 35007 ft 428 kts 214°
2026-04-20 14:08 45.92450 -6.00604 35006 ft 428 kts 214°
2026-04-20 14:09 45.87357 -6.04969 35006 ft 430 kts 214°
2026-04-20 14:09 45.82211 -6.09369 35004 ft 430 kts 214°
2026-04-20 14:10 45.77106 -6.13724 35000 ft 429 kts 214°
2026-04-20 14:10 45.71963 -6.18102 35007 ft 429 kts 214°
2026-04-20 14:11 45.66844 -6.22452 35000 ft 428 kts 214°
2026-04-20 14:11 45.61764 -6.26757 34998 ft 427 kts 214°
2026-04-20 14:12 45.56636 -6.31097 34995 ft 429 kts 214°
2026-04-20 14:12 45.51521 -6.35415 34988 ft 428 kts 214°
2026-04-20 14:13 45.46404 -6.39725 34985 ft 429 kts 214°
2026-04-20 14:13 45.41289 -6.44024 34984 ft 429 kts 214°
2026-04-20 14:14 45.36166 -6.48320 34989 ft 428 kts 213°
2026-04-20 14:14 45.31049 -6.52602 34986 ft 428 kts 213°
2026-04-20 14:15 45.25955 -6.56857 34976 ft 428 kts 213°
2026-04-20 14:15 45.20804 -6.61149 34973 ft 429 kts 213°
2026-04-20 14:16 45.15665 -6.65423 34978 ft 429 kts 212°
2026-04-20 14:16 45.10545 -6.69672 34970 ft 428 kts 212°
2026-04-20 14:17 45.05431 -6.73906 34975 ft 428 kts 213°
2026-04-20 14:17 45.00298 -6.78148 34971 ft 427 kts 212°
2026-04-20 14:18 44.95158 -6.82387 34968 ft 428 kts 212°
2026-04-20 14:18 44.90027 -6.86609 34968 ft 428 kts 212°
2026-04-20 14:19 44.84907 -6.90813 34965 ft 425 kts 212°
2026-04-20 14:19 44.79859 -6.95106 34962 ft 426 kts 214°
2026-04-20 14:20 44.74857 -6.99579 34964 ft 427 kts 214°
2026-04-20 14:20 44.69854 -7.04038 34960 ft 427 kts 214°
2026-04-20 14:21 44.64863 -7.08460 34959 ft 427 kts 214°
2026-04-20 14:21 44.59817 -7.12917 34959 ft 427 kts 214°
2026-04-20 14:22 44.54836 -7.17302 34958 ft 425 kts 214°
2026-04-20 14:22 44.49825 -7.21703 34957 ft 425 kts 214°
2026-04-20 14:23 44.44826 -7.26083 34958 ft 425 kts 214°
2026-04-20 14:23 44.39826 -7.30455 34959 ft 425 kts 214°
2026-04-20 14:24 44.34824 -7.34820 34959 ft 426 kts 213°
2026-04-20 14:24 44.29780 -7.39210 34957 ft 427 kts 213°
2026-04-20 14:25 44.24764 -7.43568 34957 ft 425 kts 213°
2026-04-20 14:25 44.19743 -7.47922 34955 ft 425 kts 213°
2026-04-20 14:26 44.14763 -7.52233 34952 ft 425 kts 213°
2026-04-20 14:26 44.09729 -7.56582 34947 ft 424 kts 213°
2026-04-20 14:27 44.04745 -7.60880 34946 ft 425 kts 213°
2026-04-20 14:27 43.99723 -7.65201 34957 ft 424 kts 212°
2026-04-20 14:28 43.94720 -7.69498 34950 ft 424 kts 212°
2026-04-20 14:28 43.89713 -7.73789 34936 ft 425 kts 212°
2026-04-20 14:29 43.84690 -7.78085 34930 ft 425 kts 212°
2026-04-20 14:29 43.79682 -7.82359 34931 ft 425 kts 212°
2026-04-20 14:30 43.74652 -7.86642 34932 ft 424 kts 212°
2026-04-20 14:30 43.69641 -7.90899 34927 ft 424 kts 212°
2026-04-20 14:31 43.64622 -7.95154 34933 ft 424 kts 212°
2026-04-20 14:31 43.59601 -7.99402 34933 ft 423 kts 212°
2026-04-20 14:32 43.54623 -8.03606 34935 ft 423 kts 212°
2026-04-20 14:32 43.49604 -8.07837 34940 ft 424 kts 212°
2026-04-20 14:33 43.44580 -8.12064 34932 ft 423 kts 212°
2026-04-20 14:33 43.39567 -8.16276 34931 ft 424 kts 212°
2026-04-20 14:34 43.34528 -8.20500 34924 ft 424 kts 212°
2026-04-20 14:34 43.29488 -8.24719 34923 ft 424 kts 212°
2026-04-20 14:35 43.24481 -8.28901 34922 ft 423 kts 212°
2026-04-20 14:35 43.19473 -8.33075 34925 ft 423 kts 212°
2026-04-20 14:36 43.14453 -8.37251 34927 ft 423 kts 212°
2026-04-20 14:36 43.09420 -8.41427 34922 ft 423 kts 212°
2026-04-20 14:37 43.04401 -8.45585 34926 ft 423 kts 212°
2026-04-20 14:37 42.99405 -8.49713 34927 ft 423 kts 213°
2026-04-20 14:38 42.94379 -8.53860 34926 ft 422 kts 213°
2026-04-20 14:38 42.89363 -8.57993 34934 ft 422 kts 212°
2026-04-20 14:39 42.84336 -8.62125 34934 ft 421 kts 213°
2026-04-20 14:39 42.79340 -8.66226 34935 ft 421 kts 212°
2026-04-20 14:40 42.74337 -8.70323 34936 ft 420 kts 212°
2026-04-20 14:40 42.69331 -8.74415 34934 ft 421 kts 212°
2026-04-20 14:41 42.64310 -8.78513 34926 ft 421 kts 212°
2026-04-20 14:41 42.59317 -8.82578 34912 ft 420 kts 212°
2026-04-20 14:42 42.54313 -8.86644 34911 ft 419 kts 212°
2026-04-20 14:42 42.49323 -8.90695 34904 ft 420 kts 212°
2026-04-20 14:43 42.44340 -8.94726 34905 ft 418 kts 212°
2026-04-20 14:43 42.39350 -8.98759 34909 ft 418 kts 212°
2026-04-20 14:44 42.34345 -9.02797 34906 ft 418 kts 213°
2026-04-20 14:44 42.29354 -9.06812 34907 ft 416 kts 213°
2026-04-20 14:45 42.24408 -9.10785 34907 ft 418 kts 213°
2026-04-20 14:45 42.19388 -9.14809 34903 ft 418 kts 213°
2026-04-20 14:46 42.14427 -9.18778 34910 ft 417 kts 212°
2026-04-20 14:46 42.09429 -9.22766 34910 ft 416 kts 213°
2026-04-20 14:47 42.04463 -9.26726 34921 ft 416 kts 212°
2026-04-20 14:48 41.96999 -9.32667 34923 ft 415 kts 213°
2026-04-20 14:48 41.92229 -9.36890 34924 ft 414 kts 220°
2026-04-20 14:49 41.87825 -9.41849 34925 ft 413 kts 222°
2026-04-20 14:49 41.83502 -9.46934 34923 ft 413 kts 223°
2026-04-20 14:50 41.79223 -9.51984 34925 ft 413 kts 223°
2026-04-20 14:50 41.74908 -9.57068 34922 ft 413 kts 223°
2026-04-20 14:51 41.70582 -9.62156 34920 ft 412 kts 223°
2026-04-20 14:51 41.66278 -9.67205 34922 ft 413 kts 221°
2026-04-20 14:52 41.61980 -9.72242 34917 ft 411 kts 221°
2026-04-20 14:52 41.57700 -9.77248 34925 ft 410 kts 221°
2026-04-20 14:53 41.53399 -9.82271 34922 ft 410 kts 221°
2026-04-20 14:53 41.49125 -9.87253 34918 ft 410 kts 221°
2026-04-20 14:54 41.44842 -9.92237 34929 ft 411 kts 221°
2026-04-20 14:54 41.40516 -9.97264 34926 ft 412 kts 221°
2026-04-20 14:55 41.36220 -10.02244 34924 ft 411 kts 221°
2026-04-20 14:55 41.31924 -10.07217 34925 ft 408 kts 221°
2026-04-20 14:56 41.27656 -10.12149 34922 ft 407 kts 221°
2026-04-20 14:56 41.23395 -10.17065 34915 ft 408 kts 221°
2026-04-20 14:57 41.19103 -10.22006 34916 ft 407 kts 221°
2026-04-20 14:57 41.14836 -10.26907 34912 ft 406 kts 221°
2026-04-20 14:58 41.10598 -10.31769 34913 ft 407 kts 221°
2026-04-20 14:58 41.06306 -10.36685 34915 ft 405 kts 221°
2026-04-20 14:59 41.02076 -10.41520 34917 ft 406 kts 221°
2026-04-20 14:59 40.97781 -10.46420 34913 ft 406 kts 221°
2026-04-20 15:00 40.93536 -10.51256 34916 ft 405 kts 221°
2026-04-20 15:00 40.89280 -10.56097 34917 ft 404 kts 221°
2026-04-20 15:01 40.85035 -10.60914 34919 ft 403 kts 221°
2026-04-20 15:01 40.80758 -10.65760 34912 ft 404 kts 220°
2026-04-20 15:02 40.76517 -10.70556 34909 ft 403 kts 220°
2026-04-20 15:02 40.72240 -10.75381 34913 ft 404 kts 220°
2026-04-20 15:03 40.67988 -10.80176 34916 ft 402 kts 220°
2026-04-20 15:03 40.63763 -10.84932 34926 ft 401 kts 220°
2026-04-20 15:04 40.59530 -10.89688 34921 ft 403 kts 220°
2026-04-20 15:04 40.55274 -10.94457 34920 ft 403 kts 220°
2026-04-20 15:05 40.51009 -10.99230 34921 ft 401 kts 220°
2026-04-20 15:05 40.46750 -11.03991 34916 ft 401 kts 220°
2026-04-20 15:06 40.42508 -11.08722 34922 ft 402 kts 220°
2026-04-20 15:06 40.38257 -11.13456 34917 ft 400 kts 220°
2026-04-20 15:07 40.34018 -11.18170 34921 ft 402 kts 220°
2026-04-20 15:07 40.29748 -11.22912 34914 ft 402 kts 220°
2026-04-20 15:08 40.25512 -11.27609 34914 ft 402 kts 220°
2026-04-20 15:08 40.21262 -11.32306 34912 ft 402 kts 219°
2026-04-20 15:09 40.16968 -11.37054 34886 ft 403 kts 219°
2026-04-20 15:09 40.12708 -11.41748 34896 ft 403 kts 219°
2026-04-20 15:10 40.08458 -11.46427 34899 ft 401 kts 219°
2026-04-20 15:10 40.04164 -11.51140 34894 ft 402 kts 219°
2026-04-20 15:11 39.99891 -11.55823 34899 ft 402 kts 219°
2026-04-20 15:11 39.95623 -11.60493 34899 ft 402 kts 219°
2026-04-20 15:12 39.91353 -11.65157 34892 ft 402 kts 219°
2026-04-20 15:12 39.87061 -11.69842 34894 ft 401 kts 218°
2026-04-20 15:13 39.82799 -11.74481 34893 ft 403 kts 218°
2026-04-20 15:13 39.78495 -11.79163 34891 ft 403 kts 218°
2026-04-20 15:14 39.74180 -11.83849 34894 ft 403 kts 218°
2026-04-20 15:14 39.69906 -11.88481 34892 ft 403 kts 218°
2026-04-20 15:15 39.65614 -11.93123 34888 ft 402 kts 218°
2026-04-20 15:15 39.61311 -11.97763 34873 ft 402 kts 218°
2026-04-20 15:16 39.57017 -12.02389 34870 ft 402 kts 218°
2026-04-20 15:16 39.52737 -12.06994 34878 ft 403 kts 218°
2026-04-20 15:17 39.48445 -12.11610 34872 ft 402 kts 218°
2026-04-20 15:17 39.44110 -12.16260 34861 ft 406 kts 218°
2026-04-20 15:18 39.39635 -12.20600 34863 ft 402 kts 210°
2026-04-20 15:18 39.34710 -12.23986 34857 ft 401 kts 206°
2026-04-20 15:19 39.29746 -12.27232 34851 ft 402 kts 206°
2026-04-20 15:19 39.24758 -12.30494 34846 ft 402 kts 206°
2026-04-20 15:20 39.19777 -12.33741 34838 ft 402 kts 206°
2026-04-20 15:20 39.14788 -12.36984 34827 ft 402 kts 206°
2026-04-20 15:21 39.09768 -12.40243 34828 ft 402 kts 206°
2026-04-20 15:21 39.04785 -12.43471 34817 ft 404 kts 206°
2026-04-20 15:22 38.99788 -12.46705 34816 ft 403 kts 206°
2026-04-20 15:22 38.94788 -12.49934 34807 ft 404 kts 206°
2026-04-20 15:23 38.89740 -12.53186 34815 ft 404 kts 206°
2026-04-20 15:23 38.84741 -12.56403 34822 ft 404 kts 206°
2026-04-20 15:24 38.79723 -12.59628 34815 ft 404 kts 206°
2026-04-20 15:24 38.74705 -12.62847 34815 ft 403 kts 206°
2026-04-20 15:25 38.69675 -12.66067 34815 ft 404 kts 205°
2026-04-20 15:25 38.64680 -12.69258 34807 ft 403 kts 206°
2026-04-20 15:26 38.59629 -12.72482 34792 ft 405 kts 205°
2026-04-20 15:26 38.54632 -12.75664 34788 ft 404 kts 205°
2026-04-20 15:27 38.49600 -12.78867 34777 ft 404 kts 205°
2026-04-20 15:27 38.44569 -12.82067 34787 ft 405 kts 206°
2026-04-20 15:28 38.39528 -12.85266 34775 ft 403 kts 205°
2026-04-20 15:28 38.34514 -12.88437 34782 ft 404 kts 205°
2026-04-20 15:29 38.29479 -12.91625 34764 ft 404 kts 205°
2026-04-20 15:29 38.24473 -12.94789 34775 ft 405 kts 205°
2026-04-20 15:30 38.19427 -12.97969 34768 ft 405 kts 205°
2026-04-20 15:30 38.14362 -13.01156 34762 ft 405 kts 205°
2026-04-20 15:31 38.09345 -13.04310 34759 ft 405 kts 205°
2026-04-20 15:31 38.04325 -13.07464 34760 ft 402 kts 205°
2026-04-20 15:32 37.99295 -13.10621 34762 ft 405 kts 205°
2026-04-20 15:32 37.94239 -13.13789 34763 ft 402 kts 205°
2026-04-20 15:33 37.89211 -13.16910 34765 ft 404 kts 205°
2026-04-20 15:33 37.84197 -13.20042 34766 ft 404 kts 205°
2026-04-20 15:34 37.79171 -13.23176 34753 ft 403 kts 205°
2026-04-20 15:34 37.74118 -13.26321 34737 ft 405 kts 205°
2026-04-20 15:35 37.69110 -13.29443 34739 ft 403 kts 205°
2026-04-20 15:35 37.64071 -13.32579 34736 ft 404 kts 205°
2026-04-20 15:36 37.59025 -13.35690 34733 ft 405 kts 205°
2026-04-20 15:36 37.53966 -13.38812 34735 ft 403 kts 205°
2026-04-20 15:37 37.48935 -13.41910 34738 ft 405 kts 205°
2026-04-20 15:37 37.43884 -13.45017 34734 ft 404 kts 205°
2026-04-20 15:38 37.38857 -13.48110 34730 ft 404 kts 205°
2026-04-20 15:38 37.33811 -13.51209 34725 ft 404 kts 205°
2026-04-20 15:39 37.28714 -13.54336 34726 ft 406 kts 205°
2026-04-20 15:39 37.23668 -13.57430 34718 ft 404 kts 205°
2026-04-20 15:40 37.18628 -13.60516 34712 ft 404 kts 205°
2026-04-20 15:40 37.13557 -13.63613 34716 ft 405 kts 205°
2026-04-20 15:41 37.08502 -13.66696 34713 ft 404 kts 204°
2026-04-20 15:41 37.03453 -13.69769 34711 ft 405 kts 204°
2026-04-20 15:42 36.98411 -13.72833 34707 ft 404 kts 204°
2026-04-20 15:42 36.93347 -13.75905 34703 ft 404 kts 204°
2026-04-20 15:43 36.88321 -13.78948 34702 ft 403 kts 204°
2026-04-20 15:43 36.83252 -13.82015 34700 ft 402 kts 204°
2026-04-20 15:44 36.78218 -13.85057 34696 ft 404 kts 204°
2026-04-20 15:44 36.73188 -13.88092 34695 ft 404 kts 204°
2026-04-20 15:45 36.68117 -13.91149 34692 ft 405 kts 204°
2026-04-20 15:45 36.63052 -13.94197 34693 ft 404 kts 204°
2026-04-20 15:46 36.58000 -13.97228 34689 ft 403 kts 204°
2026-04-20 15:46 36.52946 -14.00264 34688 ft 403 kts 204°
2026-04-20 15:47 36.47892 -14.03292 34690 ft 404 kts 204°
2026-04-20 15:47 36.42860 -14.06302 34695 ft 403 kts 204°
2026-04-20 15:48 36.37777 -14.09338 34684 ft 405 kts 205°
2026-04-20 15:48 36.32710 -14.12360 34674 ft 404 kts 205°
2026-04-20 15:49 36.27641 -14.15378 34668 ft 407 kts 204°
2026-04-20 15:49 36.22523 -14.18419 34675 ft 406 kts 205°
2026-04-20 15:50 36.17453 -14.21430 34675 ft 405 kts 205°
2026-04-20 15:50 36.12398 -14.24429 34679 ft 406 kts 205°
2026-04-20 15:51 36.07276 -14.27462 34667 ft 406 kts 205°
2026-04-20 15:51 36.02182 -14.30473 34671 ft 407 kts 205°
2026-04-20 15:52 35.97092 -14.33479 34668 ft 407 kts 205°
2026-04-20 15:52 35.91976 -14.36495 34663 ft 408 kts 205°
2026-04-20 15:53 35.84275 -14.41026 34671 ft 409 kts 205°
2026-04-20 15:53 35.79177 -14.44020 34672 ft 407 kts 205°
2026-04-20 15:54 35.74047 -14.47029 34667 ft 409 kts 205°
2026-04-20 15:54 35.68915 -14.50035 34665 ft 409 kts 205°
2026-04-20 15:55 35.63794 -14.53031 34670 ft 411 kts 205°
2026-04-20 15:55 35.58488 -14.55720 34668 ft 409 kts 201°
2026-04-20 15:56 35.53167 -14.58216 34670 ft 412 kts 201°
2026-04-20 15:56 35.47810 -14.60755 34676 ft 411 kts 202°
2026-04-20 15:57 35.42520 -14.63278 34673 ft 411 kts 202°
2026-04-20 15:57 35.37173 -14.65832 34670 ft 413 kts 201°
2026-04-20 15:58 35.31838 -14.68381 34668 ft 413 kts 202°
2026-04-20 15:58 35.26462 -14.70948 34663 ft 414 kts 202°
2026-04-20 15:59 35.21118 -14.73497 34666 ft 414 kts 202°
2026-04-20 15:59 35.15737 -14.76061 34662 ft 415 kts 202°
2026-04-20 16:00 35.10376 -14.78612 34660 ft 416 kts 202°
2026-04-20 16:00 35.04970 -14.81181 34660 ft 414 kts 202°
2026-04-20 16:01 34.99594 -14.83732 34657 ft 415 kts 202°
2026-04-20 16:01 34.94226 -14.86277 34658 ft 415 kts 202°
2026-04-20 16:02 34.88872 -14.88811 34665 ft 414 kts 202°
2026-04-20 16:02 34.83503 -14.91347 34666 ft 416 kts 202°
2026-04-20 16:03 34.78083 -14.93905 34672 ft 417 kts 202°
2026-04-20 16:03 34.72670 -14.96456 34676 ft 418 kts 202°
2026-04-20 16:04 34.67273 -14.98995 34673 ft 417 kts 202°
2026-04-20 16:04 34.61845 -15.01546 34674 ft 418 kts 202°
2026-04-20 16:05 34.56467 -15.04070 34674 ft 417 kts 202°
2026-04-20 16:05 34.51031 -15.06616 34675 ft 417 kts 202°
2026-04-20 16:06 34.45618 -15.09149 34673 ft 417 kts 202°
2026-04-20 16:06 34.40242 -15.11662 34682 ft 417 kts 202°
2026-04-20 16:07 34.34804 -15.14200 34676 ft 419 kts 202°
2026-04-20 16:07 34.29359 -15.16738 34680 ft 419 kts 202°
2026-04-20 16:08 34.23914 -15.19271 34681 ft 418 kts 202°
2026-04-20 16:08 34.18526 -15.21878 34687 ft 418 kts 205°
2026-04-20 16:09 34.13231 -15.24810 34682 ft 418 kts 206°
2026-04-20 16:09 34.07971 -15.27738 34683 ft 417 kts 206°
2026-04-20 16:10 34.02720 -15.30635 34689 ft 418 kts 206°
2026-04-20 16:10 33.97408 -15.33550 34686 ft 417 kts 206°
2026-04-20 16:11 33.92143 -15.36429 34686 ft 418 kts 206°
2026-04-20 16:11 33.86827 -15.39330 34686 ft 419 kts 206°
2026-04-20 16:12 33.81519 -15.42221 34680 ft 419 kts 206°
2026-04-20 16:12 33.76200 -15.45114 34686 ft 420 kts 206°
2026-04-20 16:13 33.70864 -15.48011 34684 ft 420 kts 206°
2026-04-20 16:13 33.65561 -15.50886 34685 ft 421 kts 206°
2026-04-20 16:14 33.60232 -15.53772 34690 ft 421 kts 206°
2026-04-20 16:14 33.54880 -15.56666 34691 ft 421 kts 207°
2026-04-20 16:15 33.49558 -15.59539 34695 ft 420 kts 206°
2026-04-20 16:15 33.44208 -15.62424 34697 ft 422 kts 206°
2026-04-20 16:16 33.38843 -15.65314 34692 ft 421 kts 206°
2026-04-20 16:16 33.33506 -15.68184 34696 ft 423 kts 206°
2026-04-20 16:17 33.28152 -15.71059 34695 ft 422 kts 206°
2026-04-20 16:17 33.22784 -15.73936 34697 ft 424 kts 206°
2026-04-20 16:18 33.17416 -15.76810 34698 ft 423 kts 206°
2026-04-20 16:18 33.12044 -15.79685 34704 ft 422 kts 206°
2026-04-20 16:19 33.06681 -15.82551 34717 ft 423 kts 206°
2026-04-20 16:19 33.01308 -15.85416 34710 ft 421 kts 206°
2026-04-20 16:20 32.95965 -15.88261 34716 ft 423 kts 206°
2026-04-20 16:20 32.90604 -15.91114 34719 ft 423 kts 206°
2026-04-20 16:21 32.85236 -15.93965 34713 ft 423 kts 206°
2026-04-20 16:21 32.79842 -15.96827 34723 ft 424 kts 206°
2026-04-20 16:22 32.74477 -15.99670 34720 ft 424 kts 206°
2026-04-20 16:22 32.69045 -16.02545 34720 ft 426 kts 206°
2026-04-20 16:23 32.63634 -16.05404 34716 ft 426 kts 206°
2026-04-20 16:23 32.58246 -16.08250 34683 ft 426 kts 207°
2026-04-20 16:24 32.52824 -16.11105 34697 ft 425 kts 207°
2026-04-20 16:24 32.47410 -16.13955 34718 ft 428 kts 206°
2026-04-20 16:25 32.41967 -16.16816 34725 ft 427 kts 206°
2026-04-20 16:25 32.36548 -16.19661 34729 ft 427 kts 206°
2026-04-20 16:26 32.31113 -16.22509 34729 ft 427 kts 207°
2026-04-20 16:26 32.25682 -16.25353 34734 ft 427 kts 207°
2026-04-20 16:27 32.20249 -16.28192 34732 ft 427 kts 207°
2026-04-20 16:27 32.14698 -16.30656 34742 ft 429 kts 200°
2026-04-20 16:28 32.08938 -16.32612 34745 ft 430 kts 199°
2026-04-20 16:28 32.03212 -16.34526 34755 ft 429 kts 199°
2026-04-20 16:29 31.97467 -16.36467 34760 ft 429 kts 199°
2026-04-20 16:29 31.91742 -16.38408 34760 ft 429 kts 200°
2026-04-20 16:30 31.85992 -16.40361 34763 ft 430 kts 200°
2026-04-20 16:30 31.80239 -16.42314 34759 ft 429 kts 200°
2026-04-20 16:31 31.74507 -16.44255 34761 ft 430 kts 200°
2026-04-20 16:31 31.68786 -16.46192 34761 ft 429 kts 200°
2026-04-20 16:32 31.63020 -16.48143 34758 ft 429 kts 200°
2026-04-20 16:32 31.57292 -16.50079 34771 ft 430 kts 200°
2026-04-20 16:33 31.51534 -16.52022 34761 ft 429 kts 200°
2026-04-20 16:33 31.45822 -16.53936 34764 ft 431 kts 199°
2026-04-20 16:34 31.39882 -16.55232 34760 ft 438 kts 187°
2026-04-20 16:34 31.33768 -16.54987 34763 ft 443 kts 181°
2026-04-20 16:35 31.30668 -16.54679 34879 ft 443 kts 180°
2026-04-20 16:35 31.27625 -16.54361 34680 ft 444 kts 180°
2026-04-20 16:35 31.24539 -16.54037 34787 ft 441 kts 180°
2026-04-20 16:35 31.21496 -16.53721 34772 ft 442 kts 180°
2026-04-20 16:36 31.15385 -16.53091 34770 ft 444 kts 180°
2026-04-20 16:36 31.09240 -16.52458 34775 ft 442 kts 180°
2026-04-20 16:37 31.03110 -16.51828 34777 ft 443 kts 180°
2026-04-20 16:37 30.96930 -16.51195 34786 ft 443 kts 180°
2026-04-20 16:38 30.90799 -16.50568 34788 ft 443 kts 180°
2026-04-20 16:38 30.84683 -16.49942 34796 ft 443 kts 181°
2026-04-20 16:39 30.78515 -16.49313 34793 ft 442 kts 181°
2026-04-20 16:39 30.72376 -16.48688 34798 ft 444 kts 181°
2026-04-20 16:40 30.66224 -16.48060 34800 ft 441 kts 181°
2026-04-20 16:40 30.60112 -16.47440 34801 ft 442 kts 181°
2026-04-20 16:41 30.53988 -16.46817 34803 ft 442 kts 181°
2026-04-20 16:41 30.47886 -16.46198 34802 ft 441 kts 181°
2026-04-20 16:42 30.41737 -16.45575 34803 ft 441 kts 181°
2026-04-20 16:42 30.35654 -16.45464 34804 ft 434 kts 192°
2026-04-20 16:43 30.29870 -16.46990 34814 ft 425 kts 202°
2026-04-20 16:43 30.24269 -16.49107 34809 ft 425 kts 203°
2026-04-20 16:44 30.18653 -16.51276 34807 ft 424 kts 203°
2026-04-20 16:44 30.13059 -16.53427 34813 ft 424 kts 203°
2026-04-20 16:45 30.07457 -16.55576 34816 ft 424 kts 203°
2026-04-20 16:45 30.01857 -16.57719 34822 ft 424 kts 204°
2026-04-20 16:46 29.96247 -16.59863 34821 ft 423 kts 204°
2026-04-20 16:46 29.90656 -16.61998 34821 ft 424 kts 204°
2026-04-20 16:47 29.85072 -16.64126 34824 ft 423 kts 204°
2026-04-20 16:47 29.79465 -16.66263 34825 ft 424 kts 203°
2026-04-20 16:48 29.73857 -16.68394 34824 ft 423 kts 204°
2026-04-20 16:48 29.68283 -16.70512 34827 ft 423 kts 204°
2026-04-20 16:49 29.62721 -16.72621 34829 ft 421 kts 204°
2026-04-20 16:49 29.57124 -16.74745 34828 ft 421 kts 204°
2026-04-20 16:50 29.51552 -16.76855 34828 ft 422 kts 204°
2026-04-20 16:50 29.46014 -16.78946 34838 ft 419 kts 204°
2026-04-20 16:51 29.40456 -16.81047 34839 ft 421 kts 204°
2026-04-20 16:51 29.34916 -16.83138 34845 ft 419 kts 204°
2026-04-20 16:52 29.29359 -16.85232 34840 ft 420 kts 204°
2026-04-20 16:52 29.23825 -16.87313 34849 ft 420 kts 204°
2026-04-20 16:53 29.18249 -16.89410 34851 ft 418 kts 204°
2026-04-20 16:53 29.12761 -16.91470 34849 ft 416 kts 204°
2026-04-20 16:54 29.07255 -16.93536 34844 ft 416 kts 204°
2026-04-20 16:54 29.01739 -16.95603 34840 ft 415 kts 204°
2026-04-20 16:55 28.96265 -16.97651 34842 ft 416 kts 205°
2026-04-20 16:55 28.90769 -16.99707 34838 ft 415 kts 205°
2026-04-20 16:56 28.85268 -17.01765 34839 ft 418 kts 204°
2026-04-20 16:56 28.79728 -17.03830 34841 ft 418 kts 205°
2026-04-20 16:57 28.74210 -17.05885 34843 ft 418 kts 205°
2026-04-20 16:57 28.68662 -17.07951 34843 ft 419 kts 205°
2026-04-20 16:58 28.63134 -17.10004 34845 ft 417 kts 204°
2026-04-20 16:58 28.57627 -17.12048 34846 ft 418 kts 205°
2026-04-20 16:59 28.52075 -17.14110 34841 ft 419 kts 205°
2026-04-20 16:59 28.46532 -17.16161 34850 ft 419 kts 205°
2026-04-20 17:00 28.38206 -17.19244 34854 ft 421 kts 205°
2026-04-20 17:01 28.32626 -17.21306 34849 ft 421 kts 205°
2026-04-20 17:01 28.27037 -17.23369 34852 ft 422 kts 205°
2026-04-20 17:02 28.21463 -17.25423 34853 ft 422 kts 204°
2026-04-20 17:02 28.15899 -17.27469 34852 ft 421 kts 205°
2026-04-20 17:03 28.10314 -17.29525 34857 ft 422 kts 204°
2026-04-20 17:03 28.04739 -17.31540 34860 ft 424 kts 202°
2026-04-20 17:04 27.98796 -17.32515 34854 ft 442 kts 184°
2026-04-20 17:04 27.92630 -17.31362 34846 ft 452 kts 175°
2026-04-20 17:05 27.86520 -17.29753 34849 ft 454 kts 174°
2026-04-20 17:05 27.80372 -17.28101 34853 ft 453 kts 174°
2026-04-20 17:06 27.74216 -17.26456 34852 ft 455 kts 174°
2026-04-20 17:06 27.68052 -17.24809 34852 ft 454 kts 174°
2026-04-20 17:07 27.61896 -17.23168 34856 ft 455 kts 174°
2026-04-20 17:07 27.55753 -17.21534 34859 ft 456 kts 174°
2026-04-20 17:08 27.49574 -17.19890 34848 ft 455 kts 174°
2026-04-20 17:08 27.43414 -17.18256 34858 ft 456 kts 174°
2026-04-20 17:09 27.37217 -17.16612 34863 ft 456 kts 174°
2026-04-20 17:09 27.31074 -17.14984 34849 ft 455 kts 174°
2026-04-20 17:10 27.24878 -17.13345 34862 ft 457 kts 173°
2026-04-20 17:10 27.18695 -17.11712 34858 ft 456 kts 173°
2026-04-20 17:11 27.12529 -17.10084 34856 ft 456 kts 173°
2026-04-20 17:11 27.06314 -17.08445 34862 ft 457 kts 173°
2026-04-20 17:12 27.00111 -17.06811 34860 ft 457 kts 173°
2026-04-20 17:12 26.93915 -17.05181 34859 ft 457 kts 173°
2026-04-20 17:13 26.87756 -17.03517 34860 ft 460 kts 171°
2026-04-20 17:13 26.81618 -17.01323 34860 ft 462 kts 167°
2026-04-20 17:14 26.75544 -16.99018 34862 ft 462 kts 168°
2026-04-20 17:14 26.69426 -16.96736 34862 ft 462 kts 168°
2026-04-20 17:15 26.63351 -16.94501 34869 ft 463 kts 168°
2026-04-20 17:15 26.57231 -16.92261 34866 ft 462 kts 168°
2026-04-20 17:16 26.51094 -16.90022 34871 ft 463 kts 168°
2026-04-20 17:16 26.44980 -16.87796 34866 ft 461 kts 168°
2026-04-20 17:17 26.38850 -16.85570 34876 ft 462 kts 167°
2026-04-20 17:17 26.32737 -16.83354 34869 ft 462 kts 167°
2026-04-20 17:18 26.26604 -16.81132 34875 ft 463 kts 167°
2026-04-20 17:18 26.20479 -16.78917 34878 ft 463 kts 167°
2026-04-20 17:19 26.14351 -16.76706 34882 ft 463 kts 167°
2026-04-20 17:19 26.08231 -16.74501 34879 ft 460 kts 167°
2026-04-20 17:20 26.02126 -16.72305 34880 ft 463 kts 167°
2026-04-20 17:20 25.95995 -16.70102 34882 ft 462 kts 167°
2026-04-20 17:21 25.89868 -16.67903 34878 ft 463 kts 167°
2026-04-20 17:21 25.83718 -16.65698 34879 ft 464 kts 167°
2026-04-20 17:22 25.77572 -16.63495 34879 ft 463 kts 167°
2026-04-20 17:22 25.71437 -16.61301 34874 ft 464 kts 167°
2026-04-20 17:23 25.65292 -16.59105 34877 ft 464 kts 167°
2026-04-20 17:23 25.59168 -16.56917 34878 ft 463 kts 167°
2026-04-20 17:24 25.53032 -16.54729 34877 ft 464 kts 167°
2026-04-20 17:24 25.46865 -16.52533 34875 ft 464 kts 167°
2026-04-20 17:25 25.40702 -16.50339 34880 ft 464 kts 167°
2026-04-20 17:25 25.34557 -16.48155 34878 ft 464 kts 167°
2026-04-20 17:26 25.28410 -16.45971 34878 ft 464 kts 167°
2026-04-20 17:26 25.22245 -16.43784 34879 ft 465 kts 167°
2026-04-20 17:27 25.16089 -16.41602 34876 ft 464 kts 167°
2026-04-20 17:27 25.09891 -16.39409 34872 ft 465 kts 166°
2026-04-20 17:28 25.03715 -16.37240 34871 ft 464 kts 167°
2026-04-20 17:28 24.97475 -16.35653 34872 ft 458 kts 177°
2026-04-20 17:29 24.91156 -16.34916 34873 ft 457 kts 180°
2026-04-20 17:29 24.84805 -16.34291 34871 ft 456 kts 180°
2026-04-20 17:30 24.78501 -16.33661 34870 ft 456 kts 180°
2026-04-20 17:30 24.72165 -16.33021 34870 ft 457 kts 180°
2026-04-20 17:31 24.65795 -16.32373 34872 ft 458 kts 180°
2026-04-20 17:31 24.59457 -16.31726 34873 ft 458 kts 180°
2026-04-20 17:32 24.53116 -16.31277 34874 ft 454 kts 186°
2026-04-20 17:32 24.46973 -16.32329 34873 ft 442 kts 201°
2026-04-20 17:33 24.41114 -16.34450 34877 ft 441 kts 204°
2026-04-20 17:33 24.35352 -16.36678 34883 ft 441 kts 204°
2026-04-20 17:34 24.29524 -16.38920 34884 ft 442 kts 204°
2026-04-20 17:34 24.23741 -16.41133 34884 ft 443 kts 205°
2026-04-20 17:35 24.17931 -16.43351 34884 ft 441 kts 204°
2026-04-20 17:35 24.12130 -16.45561 34884 ft 441 kts 204°
2026-04-20 17:36 24.06286 -16.47785 34884 ft 442 kts 204°
2026-04-20 17:36 24.00489 -16.49988 34883 ft 441 kts 204°
2026-04-20 17:37 23.94682 -16.52192 34885 ft 441 kts 205°
2026-04-20 17:37 23.88872 -16.54395 34884 ft 442 kts 205°
2026-04-20 17:38 23.83070 -16.56592 34883 ft 440 kts 205°
2026-04-20 17:38 23.77267 -16.58791 34884 ft 443 kts 205°
2026-04-20 17:39 23.71454 -16.60988 34882 ft 441 kts 205°
2026-04-20 17:39 23.65641 -16.63184 34884 ft 441 kts 205°
2026-04-20 17:40 23.59858 -16.65367 34883 ft 442 kts 205°
2026-04-20 17:40 23.54003 -16.67576 34882 ft 441 kts 205°
2026-04-20 17:41 23.48193 -16.69766 34883 ft 444 kts 205°
2026-04-20 17:41 23.42384 -16.71953 34882 ft 442 kts 205°
2026-04-20 17:42 23.36547 -16.74147 34883 ft 442 kts 205°
2026-04-20 17:42 23.30747 -16.76326 34882 ft 442 kts 205°
2026-04-20 17:43 23.24913 -16.78517 34880 ft 442 kts 205°
2026-04-20 17:43 23.19113 -16.80691 34884 ft 441 kts 205°
2026-04-20 17:44 23.13311 -16.82867 34883 ft 443 kts 205°
2026-04-20 17:44 23.07489 -16.85045 34884 ft 442 kts 206°
2026-04-20 17:45 23.01669 -16.87223 34880 ft 442 kts 205°
2026-04-20 17:45 22.95846 -16.89400 34884 ft 443 kts 206°
2026-04-20 17:46 22.89990 -16.91584 34885 ft 442 kts 206°
2026-04-20 17:46 22.84144 -16.93767 34874 ft 445 kts 206°
2026-04-20 17:47 22.78307 -16.95939 34879 ft 443 kts 207°
2026-04-20 17:47 22.72505 -16.98098 34871 ft 441 kts 207°
2026-04-20 17:48 22.66676 -17.00267 34885 ft 442 kts 207°
2026-04-20 17:48 22.60859 -17.02430 34875 ft 444 kts 207°
2026-04-20 17:49 22.55007 -17.04600 34878 ft 442 kts 207°
2026-04-20 17:49 22.49190 -17.06757 34878 ft 442 kts 208°
2026-04-20 17:50 22.43391 -17.08910 34886 ft 442 kts 207°
2026-04-20 17:50 22.37559 -17.11068 34877 ft 442 kts 208°
2026-04-20 17:51 22.31733 -17.13224 34895 ft 443 kts 208°
2026-04-20 17:51 22.25911 -17.15374 34903 ft 444 kts 208°
2026-04-20 17:52 22.20046 -17.17540 34907 ft 443 kts 208°
2026-04-20 17:52 22.14221 -17.19688 34895 ft 441 kts 209°
2026-04-20 17:53 22.08421 -17.21831 34902 ft 444 kts 209°
2026-04-20 17:53 22.02566 -17.23984 34891 ft 444 kts 210°
2026-04-20 17:54 21.96724 -17.26132 34905 ft 443 kts 209°
2026-04-20 17:54 21.90868 -17.28287 34902 ft 446 kts 210°
2026-04-20 17:55 21.85016 -17.30432 34898 ft 441 kts 210°
2026-04-20 17:55 21.79178 -17.32578 34892 ft 447 kts 210°
2026-04-20 17:56 21.73276 -17.34742 34895 ft 442 kts 210°
2026-04-20 17:56 21.67426 -17.36885 34889 ft 445 kts 211°
2026-04-20 17:57 21.61556 -17.39034 34884 ft 442 kts 211°
2026-04-20 17:57 21.55742 -17.41160 34894 ft 446 kts 211°
2026-04-20 17:58 21.49845 -17.43319 34888 ft 442 kts 211°
2026-04-20 17:58 21.43993 -17.45456 34889 ft 446 kts 211°
2026-04-20 17:59 21.38119 -17.47602 34891 ft 446 kts 211°
2026-04-20 17:59 21.32251 -17.49732 34891 ft 441 kts 211°
2026-04-20 18:00 21.26449 -17.51851 34883 ft 446 kts 212°
2026-04-20 18:00 21.20562 -17.53986 34879 ft 441 kts 212°
2026-04-20 18:01 21.14728 -17.56115 34875 ft 448 kts 212°
2026-04-20 18:01 21.08870 -17.58240 34879 ft 444 kts 212°
2026-04-20 18:02 21.03029 -17.60353 34882 ft 440 kts 212°
2026-04-20 18:02 20.97187 -17.62482 34889 ft 446 kts 212°
2026-04-20 18:03 20.91286 -17.64623 34889 ft 445 kts 212°
2026-04-20 18:03 20.85410 -17.66744 34888 ft 447 kts 212°
2026-04-20 18:04 20.79487 -17.68886 34897 ft 445 kts 213°
2026-04-20 18:04 20.73619 -17.71005 34902 ft 447 kts 213°
2026-04-20 18:05 20.64771 -17.74204 34891 ft 449 kts 213°
2026-04-20 18:05 20.58874 -17.76327 34894 ft 444 kts 213°
2026-04-20 18:06 20.52970 -17.78454 34890 ft 447 kts 213°
2026-04-20 18:06 20.47050 -17.80591 34909 ft 447 kts 213°
2026-04-20 18:07 20.41154 -17.82717 34881 ft 451 kts 213°
2026-04-20 18:07 20.35172 -17.84861 34895 ft 447 kts 213°
2026-04-20 18:08 20.29246 -17.86993 34890 ft 450 kts 213°
2026-04-20 18:08 20.23294 -17.89128 34894 ft 450 kts 213°
2026-04-20 18:09 20.17374 -17.91250 34900 ft 452 kts 213°
2026-04-20 18:09 20.11422 -17.93384 34901 ft 451 kts 213°
2026-04-20 18:10 20.05474 -17.95505 34897 ft 449 kts 213°
2026-04-20 18:10 19.99527 -17.97641 34899 ft 453 kts 213°
2026-04-20 18:11 19.93351 -17.99520 34886 ft 471 kts 205°
2026-04-20 18:11 19.90007 -17.99945 34891 ft 485 kts 198°
2026-04-20 18:11 19.86610 -18.00077 34887 ft 491 kts 195°
2026-04-20 18:12 19.79773 -18.00063 34881 ft 491 kts 193°
2026-04-20 18:12 19.72840 -18.00032 34884 ft 496 kts 193°
2026-04-20 18:13 19.65963 -18.00013 34886 ft 492 kts 193°
2026-04-20 18:13 19.59174 -17.99997 34881 ft 487 kts 193°
2026-04-20 18:14 19.52273 -18.00003 34883 ft 494 kts 193°
2026-04-20 18:14 19.45367 -18.00002 34884 ft 493 kts 193°
2026-04-20 18:15 19.38536 -17.99989 34883 ft 487 kts 193°
2026-04-20 18:15 19.31701 -18.00000 34886 ft 494 kts 193°
2026-04-20 18:16 19.24807 -18.00005 34884 ft 492 kts 193°
2026-04-20 18:16 19.17965 -17.99993 34882 ft 491 kts 193°
2026-04-20 18:17 19.11135 -18.00001 34883 ft 492 kts 193°
2026-04-20 18:17 19.04270 -18.00000 34884 ft 491 kts 193°
2026-04-20 18:18 18.97433 -17.99999 34882 ft 490 kts 193°
2026-04-20 18:18 18.90554 -18.00000 34890 ft 493 kts 193°
2026-04-20 18:19 18.83692 -18.00000 34885 ft 490 kts 193°
2026-04-20 18:19 18.76907 -17.99994 34887 ft 488 kts 193°
2026-04-20 18:20 18.70023 -18.00000 34883 ft 490 kts 192°
2026-04-20 18:20 18.63245 -17.99999 34887 ft 491 kts 192°
2026-04-20 18:21 18.56353 -18.00004 34882 ft 493 kts 192°
2026-04-20 18:21 18.49511 -17.99995 34885 ft 487 kts 192°
2026-04-20 18:22 18.42683 -17.99910 34886 ft 493 kts 188°
2026-04-20 18:22 18.39251 -17.99535 34882 ft 506 kts 181°
2026-04-20 18:22 18.35739 -17.98630 34890 ft 520 kts 173°
2026-04-20 18:23 18.28910 -17.96013 34883 ft 523 kts 168°
2026-04-20 18:23 18.22125 -17.93157 34880 ft 524 kts 167°
2026-04-20 18:24 18.15324 -17.90337 34883 ft 525 kts 167°
2026-04-20 18:24 18.08543 -17.87556 34883 ft 523 kts 168°
2026-04-20 18:25 18.01753 -17.84789 34885 ft 523 kts 168°
2026-04-20 18:25 17.94973 -17.82026 34884 ft 521 kts 168°
2026-04-20 18:26 17.88221 -17.79280 34881 ft 519 kts 168°
2026-04-20 18:26 17.81452 -17.76532 34886 ft 521 kts 168°
2026-04-20 18:27 17.74684 -17.73790 34891 ft 520 kts 168°
2026-04-20 18:27 17.67973 -17.71068 34892 ft 519 kts 168°
2026-04-20 18:28 17.61194 -17.68326 34889 ft 521 kts 168°
2026-04-20 18:28 17.54472 -17.65602 34885 ft 519 kts 168°
2026-04-20 18:29 17.47700 -17.62863 34881 ft 518 kts 168°
2026-04-20 18:29 17.41009 -17.60161 34875 ft 516 kts 168°
2026-04-20 18:30 17.34264 -17.57446 34869 ft 520 kts 167°
2026-04-20 18:30 17.27541 -17.54731 34865 ft 515 kts 167°
2026-04-20 18:31 17.20808 -17.52019 34866 ft 517 kts 167°
2026-04-20 18:31 17.14073 -17.49305 34866 ft 516 kts 167°
2026-04-20 18:32 17.07354 -17.46601 34864 ft 516 kts 167°
2026-04-20 18:32 17.00664 -17.43914 34864 ft 515 kts 167°
2026-04-20 18:33 16.93968 -17.41225 34863 ft 515 kts 167°
2026-04-20 18:33 16.87245 -17.38525 34861 ft 513 kts 167°
2026-04-20 18:34 16.80545 -17.35887 34862 ft 515 kts 169°
2026-04-20 18:34 16.77111 -17.34800 34855 ft 504 kts 176°
2026-04-20 18:34 16.73711 -17.34227 34861 ft 489 kts 186°
2026-04-20 18:35 16.66998 -17.34151 34858 ft 478 kts 193°
2026-04-20 18:35 16.60345 -17.34552 34858 ft 476 kts 194°
2026-04-20 18:36 16.53750 -17.35009 34858 ft 475 kts 194°
2026-04-20 18:36 16.47114 -17.35471 34859 ft 475 kts 194°
2026-04-20 18:37 16.40508 -17.35935 34864 ft 476 kts 194°
2026-04-20 18:37 16.33868 -17.36399 34866 ft 474 kts 194°
2026-04-20 18:38 16.27279 -17.36866 34867 ft 479 kts 194°
2026-04-20 18:38 16.20623 -17.37328 34865 ft 475 kts 194°
2026-04-20 18:39 16.14054 -17.37783 34865 ft 473 kts 194°
2026-04-20 18:39 16.07444 -17.38251 34864 ft 476 kts 194°
2026-04-20 18:40 16.00815 -17.38709 34863 ft 473 kts 194°
2026-04-20 18:40 15.94238 -17.39171 34863 ft 476 kts 194°
2026-04-20 18:41 15.87613 -17.39630 34864 ft 473 kts 194°
2026-04-20 18:41 15.81048 -17.40089 34866 ft 475 kts 193°
2026-04-20 18:42 15.74425 -17.40550 34867 ft 473 kts 194°
2026-04-20 18:42 15.67840 -17.41007 34861 ft 475 kts 193°
2026-04-20 18:43 15.61278 -17.41464 34858 ft 473 kts 193°
2026-04-20 18:43 15.54692 -17.41921 34854 ft 473 kts 193°
2026-04-20 18:44 15.48074 -17.42382 34854 ft 473 kts 193°
2026-04-20 18:44 15.41499 -17.42837 34857 ft 473 kts 193°
2026-04-20 18:45 15.34901 -17.43295 34853 ft 474 kts 193°
2026-04-20 18:45 15.28308 -17.43749 34852 ft 472 kts 193°
2026-04-20 18:46 15.21708 -17.44210 34849 ft 475 kts 193°
2026-04-20 18:46 15.15114 -17.44663 34846 ft 473 kts 193°
2026-04-20 18:47 15.08519 -17.45122 34844 ft 473 kts 193°
2026-04-20 18:47 15.01951 -17.45575 34847 ft 472 kts 193°
2026-04-20 18:48 14.95351 -17.46034 34852 ft 473 kts 193°
2026-04-20 18:48 14.88786 -17.46485 34853 ft 473 kts 193°
2026-04-20 18:49 14.82207 -17.46939 34850 ft 471 kts 192°
2026-04-20 18:49 14.75561 -17.46832 34849 ft 489 kts 178°
2026-04-20 18:50 14.72218 -17.45862 34854 ft 505 kts 163°
2026-04-20 18:50 14.69027 -17.44282 34854 ft 510 kts 158°
2026-04-20 18:50 14.62800 -17.40719 34848 ft 510 kts 156°
2026-04-20 18:51 14.56605 -17.37065 34845 ft 512 kts 156°
2026-04-20 18:51 14.50408 -17.33421 34841 ft 509 kts 156°
2026-04-20 18:52 14.44239 -17.29808 34790 ft 513 kts 156°
2026-04-20 18:52 14.41107 -17.27980 34347 ft 518 kts 156°
2026-04-20 18:52 14.37971 -17.26150 33529 ft 520 kts 155°
2026-04-20 18:53 14.34844 -17.24322 32674 ft 519 kts 156°
2026-04-20 18:53 14.31713 -17.22491 31898 ft 517 kts 155°
2026-04-20 18:53 14.28570 -17.20653 31119 ft 515 kts 155°
2026-04-20 18:53 14.25467 -17.18839 30333 ft 511 kts 155°
2026-04-20 18:54 14.22402 -17.17046 29569 ft 502 kts 155°
2026-04-20 18:54 14.19386 -17.15281 28801 ft 494 kts 155°
2026-04-20 18:54 14.16452 -17.13567 28100 ft 486 kts 155°
2026-04-20 18:54 14.13502 -17.11845 27396 ft 478 kts 155°
2026-04-20 18:55 14.10663 -17.10189 26704 ft 471 kts 155°
2026-04-20 18:55 14.07833 -17.08540 26002 ft 463 kts 155°
2026-04-20 18:55 14.05054 -17.06921 25300 ft 455 kts 155°
2026-04-20 18:55 14.02338 -17.05339 24599 ft 447 kts 155°
2026-04-20 18:56 13.99634 -17.03765 23889 ft 438 kts 155°
2026-04-20 18:56 13.97021 -17.02243 23207 ft 430 kts 155°
2026-04-20 18:56 13.94426 -17.00731 22513 ft 422 kts 155°
2026-04-20 18:56 13.91894 -16.99258 21807 ft 415 kts 155°
2026-04-20 18:57 13.89417 -16.97817 21101 ft 407 kts 154°
2026-04-20 18:57 13.86995 -16.96409 20420 ft 401 kts 154°
2026-04-20 18:57 13.84573 -16.95002 19720 ft 394 kts 154°
2026-04-20 18:57 13.82201 -16.93623 18999 ft 388 kts 154°
2026-04-20 18:58 13.79864 -16.92266 18284 ft 382 kts 154°
2026-04-20 18:58 13.77572 -16.90933 17584 ft 376 kts 154°
2026-04-20 18:58 13.75303 -16.89615 16851 ft 371 kts 153°
2026-04-20 18:58 13.73099 -16.88334 16151 ft 366 kts 153°
2026-04-20 18:59 13.70887 -16.87050 15411 ft 361 kts 152°
2026-04-20 18:59 13.68710 -16.85787 14688 ft 356 kts 152°
2026-04-20 18:59 13.66557 -16.84537 13983 ft 352 kts 152°
2026-04-20 18:59 13.64446 -16.83313 13252 ft 348 kts 152°
2026-04-20 19:00 13.62359 -16.82103 12536 ft 344 kts 151°
2026-04-20 19:00 13.60300 -16.80909 11813 ft 340 kts 151°
2026-04-20 19:00 13.58241 -16.79715 11070 ft 336 kts 151°
2026-04-20 19:00 13.56272 -16.78428 10341 ft 333 kts 140°
2026-04-20 19:01 13.54643 -16.76769 9652 ft 329 kts 132°
2026-04-20 19:01 13.53143 -16.75029 8924 ft 325 kts 131°
2026-04-20 19:01 13.51666 -16.73305 8192 ft 322 kts 131°
2026-04-20 19:01 13.50191 -16.71600 7494 ft 320 kts 131°
2026-04-20 19:02 13.48695 -16.69884 6756 ft 324 kts 131°
2026-04-20 19:02 13.47177 -16.68157 6036 ft 327 kts 131°
2026-04-20 19:02 13.45657 -16.66436 5305 ft 329 kts 130°
2026-04-20 19:02 13.44105 -16.64695 4577 ft 331 kts 130°
2026-04-20 19:03 13.42559 -16.62974 3861 ft 332 kts 130°
2026-04-20 19:03 13.40974 -16.61221 3132 ft 333 kts 130°
2026-04-20 19:03 13.39374 -16.59459 2400 ft 335 kts 131°
2026-04-20 19:03 13.37800 -16.57721 1927 ft 328 kts 131°
2026-04-20 19:04 13.36300 -16.56049 1793 ft 311 kts 131°
2026-04-20 19:04 13.34864 -16.54444 1782 ft 291 kts 131°
2026-04-20 19:04 13.33517 -16.52938 1830 ft 285 kts 131°
2026-04-20 19:04 13.32157 -16.51417 1981 ft 293 kts 131°
2026-04-20 19:05 13.30792 -16.49891 1979 ft 284 kts 131°
2026-04-20 19:05 13.29467 -16.48416 1981 ft 277 kts 131°
2026-04-20 19:05 13.28169 -16.46970 1980 ft 277 kts 131°
2026-04-20 19:05 13.26854 -16.45506 1972 ft 280 kts 131°
2026-04-20 19:06 13.25530 -16.44031 1971 ft 279 kts 131°
2026-04-20 19:06 13.24204 -16.42557 1974 ft 278 kts 131°
2026-04-20 19:06 13.22891 -16.41097 1973 ft 279 kts 131°
2026-04-20 19:06 13.21583 -16.39641 1971 ft 279 kts 130°
2026-04-20 19:07 13.20265 -16.38172 1966 ft 279 kts 131°
2026-04-20 19:07 13.18938 -16.36715 1961 ft 279 kts 135°
2026-04-20 19:07 13.17327 -16.35717 1956 ft 265 kts 167°
2026-04-20 19:07 13.15540 -16.35692 1966 ft 246 kts 194°
2026-04-20 19:08 13.14045 -16.36361 1959 ft 227 kts 225°
2026-04-20 19:08 13.13079 -16.39104 1997 ft 205 kts 276°
2026-04-20 19:08 13.13420 -16.40500 1976 ft 201 kts 301°
2026-04-20 19:09 13.14246 -16.41638 1975 ft 199 kts 308°
2026-04-20 19:09 13.15010 -16.42830 1975 ft 199 kts 307°
2026-04-20 19:09 13.15855 -16.43966 1975 ft 200 kts 311°
2026-04-20 19:09 13.16748 -16.45061 1980 ft 200 kts 312°
2026-04-20 19:10 13.17656 -16.46153 1985 ft 201 kts 312°
2026-04-20 19:10 13.18572 -16.47242 1983 ft 199 kts 313°
2026-04-20 19:10 13.19482 -16.48315 1979 ft 200 kts 312°
2026-04-20 19:10 13.20391 -16.49388 1980 ft 199 kts 313°
2026-04-20 19:11 13.21299 -16.50462 1979 ft 198 kts 312°
2026-04-20 19:11 13.22185 -16.51512 1974 ft 186 kts 313°
2026-04-20 19:11 13.23000 -16.52475 1972 ft 170 kts 313°
2026-04-20 19:11 13.23756 -16.53365 1976 ft 160 kts 313°
2026-04-20 19:12 13.24453 -16.54191 1991 ft 148 kts 313°
2026-04-20 19:12 13.25146 -16.55005 2030 ft 153 kts 314°
2026-04-20 19:12 13.25857 -16.55846 1979 ft 151 kts 313°
2026-04-20 19:12 13.26509 -16.56621 1894 ft 141 kts 314°
2026-04-20 19:13 13.27148 -16.57372 1712 ft 136 kts 314°
2026-04-20 19:13 13.27761 -16.58097 1545 ft 134 kts 313°
2026-04-20 19:13 13.28388 -16.58837 1363 ft 137 kts 313°
2026-04-20 19:13 13.29003 -16.59566 1191 ft 135 kts 311°
2026-04-20 19:14 13.29622 -16.60297 1013 ft 135 kts 311°
2026-04-20 19:14 13.30248 -16.61028 837 ft 136 kts 311°
2026-04-20 19:14 13.30875 -16.61747 656 ft 135 kts 310°
2026-04-20 19:14 13.31494 -16.62473 471 ft 136 kts 308°
2026-04-20 19:15 13.32099 -16.63209 297 ft 136 kts 308°
2026-04-20 19:15 13.32713 -16.63943 135 ft 136 kts 307°
2026-04-20 19:15 13.33246 -16.64584 97 ft 84 kts 311°
2026-04-20 19:15 13.33509 -16.64898 97 ft 45 kts 309°
2026-04-20 19:16 13.33694 -16.65119 100 ft 30 kts 310°
2026-04-20 19:16 13.33811 -16.65254 100 ft 12 kts 317°
2026-04-20 19:16 13.33879 -16.65251 100 ft 10 kts 39°
2026-04-20 19:16 13.33929 -16.65208 101 ft 8 kts 41°
2026-04-20 19:17 13.33956 -16.65183 102 ft 1 kts 41°
2026-04-20 19:17 13.33975 -16.65178 102 ft 5 kts 352°
2026-04-20 19:17 13.34004 -16.65218 102 ft 8 kts 307°
2026-04-20 19:17 13.34042 -16.65263 102 ft 8 kts 314°
2026-04-20 19:18 13.34084 -16.65274 102 ft 4 kts 22°
2026-04-20 19:18 13.34112 -16.65255 103 ft 6 kts 37°
2026-04-20 19:18 13.34148 -16.65224 103 ft 6 kts 41°
2026-04-20 19:18 13.34167 -16.65205 103 ft 1 kts 65°
2026-04-20 19:19 13.34161 -16.65189 103 ft 2 kts 123°
2026-04-20 19:19 13.34144 -16.65168 103 ft 3 kts 130°
2026-04-20 19:19 13.34138 -16.65161 103 ft 1 kts 130°